Home   Weather   Middlesbrough   Past weeks

Flag for United Kingdom Past Weather in Middlesbrough, England, United Kingdom — Yesterday and Last 2 Weeks

Now
52 °F

Clear.


Feels Like: 46 °F
Forecast: 46 / 51 °F
Wind: 18 mph from Southwest

Location: Tees-Side

Current Time: Dec 10, 2016 at 1:16:38 am

Latest Report: Dec 9, 2016 at 9:50 pm


Visibility: 10 mi

Pressure: 30.04 "Hg

Humidity: 82%

Dew Point: 46 °F

Location of MiddlesbroughLocation

Past Weather in Middlesbrough — Graph

°F

Middlesbrough Temperature Yesterday

Maximum temperature yesterday: 57 °F (at 12:50 pm)
Minimum temperature yesterday: 50 °F (at 6:20 am)
Average temperature yesterday: 54 °F

High & Low Weather Summary for the Past Weeks

 TemperatureHumidityPressure
High59 °F (Dec 7, 5:50 pm)100% (Nov 29, 6:20 am)30.54 "Hg (Nov 29, 6:20 am)
Low23 °F (Nov 29, 6:20 am)62% (Dec 1, 11:50 am)30.01 "Hg (Dec 7, 1:50 pm)
Average42 °F85%30.30 "Hg
* Reported Nov 24 9:20 pm — Dec 9 9:50 pm, Middlesbrough, Weather by CustomWeather, © 2016

Note: Actual official high and low records may vary slightly from our data, if they occured in-between our weather recording intervals... More about our weather records

Advertising

Middlesbrough Weather History for the Previous 24 Hours

Scroll right to see more
 ConditionsComfort  
Time TempWeatherWind HumidityBarometerVisibility
9:50 pm
Fri, Dec 9
52 °FClear.18 mph82%30.04 "Hg10 mi
9:20 pm52 °FPassing clouds.15 mph82%30.04 "HgN/A
8:50 pm54 °FPassing clouds.14 mph77%30.04 "HgN/A
8:20 pm54 °FPassing clouds.8 mph82%30.04 "HgN/A
7:50 pm54 °FPassing clouds.12 mph82%30.04 "HgN/A
7:20 pm54 °FPassing clouds.13 mph82%30.04 "HgN/A
6:50 pm54 °FPassing clouds.9 mph82%30.04 "HgN/A
6:20 pm54 °FPassing clouds.9 mph82%30.04 "HgN/A
5:50 pm55 °FPassing clouds.8 mph82%30.04 "HgN/A
5:20 pm54 °FPassing clouds.8 mph88%30.04 "HgN/A
4:50 pm54 °FPassing clouds.7 mph88%30.04 "HgN/A
4:20 pm54 °FPassing clouds.8 mph88%30.04 "HgN/A
3:50 pm55 °FPassing clouds.15 mph82%30.04 "HgN/A
3:20 pm55 °FLight rain. Passing clouds.17 mph88%30.04 "HgN/A
2:50 pm55 °FPassing clouds.15 mph88%30.04 "HgN/A
2:20 pm55 °FLight rain. Scattered clouds.16 mph88%30.04 "Hg5 mi
1:50 pm57 °FScattered clouds.17 mph82%30.04 "HgN/A
1:20 pm55 °FScattered clouds.13 mph88%30.04 "HgN/A
12:50 pm57 °FScattered clouds.13 mph82%30.04 "HgN/A
12:20 pm55 °FPartly sunny.14 mph88%30.04 "HgN/A
11:50 am55 °FPartly sunny.14 mph88%30.04 "Hg5 mi
11:20 am55 °FPartly sunny.12 mph88%30.07 "Hg5 mi
10:50 am54 °FScattered clouds.6 mph88%30.07 "Hg5 mi
10:20 am54 °FScattered clouds.16 mph88%30.07 "Hg4 mi
9:50 am54 °FPassing clouds.17 mph88%30.07 "Hg4 mi
9:20 am54 °FPassing clouds.14 mph88%30.07 "Hg4 mi
8:50 am52 °FPassing clouds.15 mph88%30.07 "Hg4 mi
8:20 am52 °FPassing clouds.15 mph88%30.07 "Hg5 mi
7:50 am50 °FPassing clouds.12 mph94%30.07 "Hg5 mi
7:20 am50 °FPassing clouds.10 mph94%30.07 "Hg5 mi
6:50 am50 °FLight rain. Passing clouds.16 mph94%30.07 "Hg5 mi
6:20 am50 °FPassing clouds.7 mph88%30.09 "Hg5 mi
Weather by CustomWeather, © 2016

See weather overviewHow to use our weather pages